Location: Biltmore Gardens
(41.6070°N, 83.4666°W)
Time: 02:44:00
(UTC+00:00)

deb Explorer IX - Visible Passes

Search period start: 21 April 2021 00:00
Search period end: 01 May 2021 00:00
Orbit: 541 x 1099 km, 38.8° (Epoch: 20 April)

Date Brightness Start Highest point End Pass type
(mag) Time Alt. Az. Time Alt. Az. Time Alt. Az.
22 Apr ? 10:11:50 10° S 10:13:38 13° SSE 10:15:27 10° ESE visible
23 Apr ? 09:48:14 10° S 09:49:59 12° SSE 09:51:46 10° ESE visible
24 Apr ? 09:24:35 10° S 09:26:21 12° SSE 09:28:07 10° ESE visible
25 Apr ? 09:01:16 11° S 09:02:42 13° SSE 09:04:30 10° ESE visible
26 Apr ? 08:38:45 13° SSE 08:39:03 13° SSE 08:40:55 10° ESE visible
27 Apr ? 08:16:11 13° SE 08:16:11 13° SE 08:17:22 10° ESE visible
27 Apr ? 09:57:37 10° SW 10:01:27 39° SSE 10:05:17 10° E visible
28 Apr ? 07:53:34 11° ESE 07:53:34 11° ESE 07:53:51 10° ESE visible
28 Apr ? 09:34:49 15° SW 09:37:50 39° SSE 09:41:39 10° E visible
29 Apr ? 09:12:11 23° SW 09:14:13 39° SSE 09:18:01 10° E visible
30 Apr ? 08:49:30 33° SSW 08:50:35 40° SSE 08:54:25 10° E visible
